Other Public Products
Issued by NWS Charleston, SC

Home | Current Version | Previous Version | Text Only | Print | Product List | Glossary On
Versions: 1 2 3 4 5 6 7 8 9 10 11 12 13 14 15 16 17 18 19 20 21 22 23 24 25 26 27 28 29 30 31 32 33 34 35 36 37 38 39 40 41 42 43 44 45 46 47 48 49 50
000
FPUS82 KCHS 262127
OPUCHS

TEST...KCHS/KSAV Gateway Observations...TEST
National Weather Service Charleston SC
500 PM EDT FRI MAY 26 2017

NOTE: "fair" indicates few or no clouds below 12,000 feet with no
significant weather and/or obstructions to visibility.

SCZ050-WAZ558-NCZ071-TXZ119-213-PAZ071-DCZ001-FLZ074-172-MI076-
NYZ176-178-MAZ016-IL014-TNZ027-NJZ106-GAZ044-MD014-262200-

...Gateway Observations for Charleston International...

CITY           SKY/WX    TMP DP  RH WIND       PRES   REMARKS
Chas Airport   MOSUNNY   83  53  35 W14G20    29.95F
Seattle        MOSUNNY   75  51  43 NW8G17    29.97S
Charlotte      MOSUNNY   80  53  39 SW9       29.93F
Dallas DFW     PTSUNNY   95  74  50 S22G28    29.74F HX 105
Dallas Love    PTSUNNY   93  71  48 SW16G25   29.76S HX 100
Philladelphia  PTSUNNY   74  54  49 W21G30    29.70R
Wash National  PTSUNNY   75  53  46 W18G28    29.79R
Baltimore      PTSUNNY   74  57  55 W21G31    29.76R
Miami          CLOUDY    86  74  67 SE8       30.01R THUNDER HX  94
Detroit        PTSUNNY   68  52  56 NW8       29.86R
Newark         PTSUNNY   74  54  49 W15G21    29.63R
Laguardia      PTSUNNY   74  52  46 W15       29.62R
J F K          PTSUNNY   75  55  49 W14G28    29.63R
Boston Logan   CLOUDY    59  53  80 W9        29.60R
Ft. Lauderdale MOSUNNY   84  73  69 E10       30.00F HX  90
Chicago O`Hare RAIN      64  54  69 E12       29.80F
Chicago Midway LGT RAIN  62  55  77 E12       29.80F
Houston Bush   CLOUDY    89  73  59 S14       29.87F HX  97
Houston Hobby  PTSUNNY   85  74  69 S15G21    29.88S HX  92
Nashville      MOSUNNY   87  56  34 SW16G22   29.87F
Atlanta        MOSUNNY   83  59  44 W9        30.00F

$$

GAZ044-118-TXZ119-213-NCZ071-DCZ001-MDZ014-506-PAZ021-071-NJZ106-
NYZ176-178-MAZ106-OHZ011-021-055-MIZ076-KYZ091-ILZ014-INZ047-
MNZ060-ONZ431-262200-

...Gateway Observations for Savannah International...

CITY           SKY/WX    TMP DP  RH WIND       PRES   REMARKS
Savannah Arpt  MOSUNNY   87  50  27 W15       29.98F
Atlanta        MOSUNNY   83  59  44 W9        30.00F
Charlotte      MOSUNNY   80  53  39 SW9       29.93F
Dallas DFW     PTSUNNY   95  74  50 S22G28    29.74F HX 105
Houston Bush   CLOUDY    89  73  59 S14       29.87F HX  97
Wash National  PTSUNNY   75  53  46 W18G28    29.79R
Wash Dulles    PTSUNNY   75  52  44 W30G39    29.79R
Baltimore      PTSUNNY   74  57  55 W21G31    29.76R
Philadelphia   PTSUNNY   74  54  49 W21G30    29.70R
Newark         PTSUNNY   74  54  49 W15G21    29.63R
Laguardia      PTSUNNY   74  52  46 W15       29.62R
J F K          PTSUNNY   75  55  49 W14G28    29.63R
Boston         CLOUDY    59  53  80 W9        29.60R
Pittsburg      PTSUNNY   67  55  65 W15       29.86F
Akron          PTSUNNY   66  54  65 NW10      29.88S
Cleveland      PTSUNNY   68  52  56 W13       29.89F
Cincinnati     MOSUNNY   78  57  48 SW12      29.87F
Columbus       CLOUDY    73  56  55 W8        29.87F
Detroit        PTSUNNY   68  52  56 NW8       29.86R
Chicago O`Hare RAIN      64  54  69 E12       29.80F
Minneapolis    PTSUNNY   78  54  43 SW8       29.72F
Indianapolis   CLOUDY    76  60  57 S10       29.82F
Toronto Canada LGT RAIN  63  55  77 NW13      29.77R

$$




USA.gov is the U.S. government's official web portal to all federal, state and local government web resources and services.